Weather History for Oscoda, MI

Change the Weather History Date:

Tuesday, November 20, 2012

  Actual Average Record
Temperature  
Mean Temperature 38 °F -  
Max Temperature 49 °F 42 °F 53 °F (2003)
Min Temperature 28 °F 29 °F 22 °F (2013)
Degree Days  
Heating Degree Days 26    
Moisture  
Dew Point 34 °F    
Average Humidity 86    
Maximum Humidity 99    
Minimum Humidity 63    
Precipitation  
Precipitation 0.00 in - - ()
Sea Level Pressure  
Sea Level Pressure 30.12 in    
Wind  
Wind Speed 1 mph (SSW)    
Max Wind Speed 6 mph    
Max Gust Speed -    
Visibility 7 miles    
Events Fog    
Averages and records for this station are not official NWS values.
T = Trace of Precipitation, MM = Missing Value Source: NWS Daily Summary

Daily Weather History Graph

Daily Weather History Graph

Search for Another Location

Airport:

Trip Planner

Search our weather history database for the weather conditions in past years. The results will help you decide how hot, cold, wet, or windy it might be!

Date:

Astronomy

Nov. 20, 2012 Rise Set
Actual Time 7:36 AM EST 5:01 PM EST
Civil Twilight 7:05 AM EST 5:33 PM EST
Nautical Twilight 6:29 AM EST 6:08 PM EST
Astronomical Twilight 5:54 AM EST 6:43 PM EST
Moon 1:02 PM EST (11/20) No Moon Set
Length of Visible Light 10h 28m
Length of Day
9h 24m
Waxing Crescent, 51% of the Moon is Illuminated
Nov 20
Waxing Crescent
Nov 28
Full
Dec 6
Last Quarter
Dec 13
New
Dec 20
First Quarter

Hourly Weather History & Observations

Time (EST) Temp. Windchill Dew Point Humidity Pressure Visibility Wind Dir Wind Speed Gust Speed Precip Events Conditions
12:14 AM 30.9 °F - 29.7 °F 95% 30.15 in 7.0 mi Calm Calm - N/A   Scattered Clouds
12:34 AM 32.0 °F - 30.7 °F 95% 30.15 in 10.0 mi Calm Calm - N/A   Scattered Clouds
12:54 AM 32.7 °F - 31.1 °F 94% 30.15 in 4.0 mi Calm Calm - N/A   Clear
1:14 AM 33.1 °F - 31.6 °F 94% 30.15 in 3.0 mi Calm Calm - N/A   Clear
1:34 AM 32.4 °F 29.1 °F 30.6 °F 93% 30.14 in 7.0 mi SSW 3.5 mph - N/A   Clear
1:54 AM 31.6 °F 28.3 °F 30.0 °F 94% 30.14 in 10.0 mi SW 3.5 mph - N/A   Clear
2:13 AM 32.0 °F 28.7 °F 30.9 °F 96% 30.14 in 10.0 mi SSW 3.5 mph - N/A   Clear
2:34 AM 32.2 °F 27.7 °F 31.6 °F 98% 30.14 in 7.0 mi SSW 4.6 mph - N/A   Clear
2:54 AM 32.7 °F - 32.0 °F 97% 30.14 in 7.0 mi Calm Calm - N/A   Clear
3:13 AM 32.4 °F 29.1 °F 31.6 °F 97% 30.13 in 7.0 mi South 3.5 mph - N/A   Clear
3:34 AM 32.2 °F - 31.3 °F 96% 30.13 in 7.0 mi Calm Calm - N/A   Clear
3:54 AM 32.4 °F - 31.8 °F 98% 30.13 in 4.0 mi Calm Calm - N/A   Clear
4:13 AM 32.9 °F - 32.0 °F 96% 30.12 in 4.0 mi Calm Calm - N/A   Scattered Clouds
4:34 AM 32.9 °F - 32.0 °F 96% 30.12 in 4.0 mi Calm Calm - N/A   Overcast
4:54 AM 34.3 °F - 33.8 °F 98% 30.12 in 2.5 mi Calm Calm - N/A   Scattered Clouds
5:13 AM 32.0 °F - 31.3 °F 97% 30.13 in 2.5 mi Calm Calm - N/A   Mostly Cloudy
5:34 AM 32.2 °F - 31.8 °F 99% 30.12 in 2.5 mi Calm Calm - N/A   Scattered Clouds
5:54 AM 30.0 °F 25.2 °F 28.9 °F 96% 30.12 in 4.0 mi SW 4.6 mph - N/A   Clear
6:14 AM 29.8 °F - 29.1 °F 97% 30.12 in 3.0 mi Calm Calm - N/A   Clear
6:34 AM 29.8 °F - 29.1 °F 97% 30.12 in 4.0 mi Calm Calm - N/A   Clear
6:54 AM 31.8 °F - 31.1 °F 97% 30.12 in 4.0 mi Calm Calm - N/A   Clear
7:14 AM 33.8 °F - 32.2 °F 94% 30.12 in 7.0 mi Calm Calm - N/A   Clear
7:34 AM 32.4 °F 29.1 °F 30.9 °F 94% 30.12 in 5.0 mi SW 3.5 mph - N/A   Scattered Clouds
7:54 AM 32.0 °F - 30.9 °F 96% 30.12 in 4.0 mi Calm Calm - N/A   Clear
7:58 AM 32.2 °F 27.7 °F 31.5 °F 97% 30.12 in 4.0 mi South 4.6 mph - N/A   Clear
8:34 AM 34.7 °F 29.6 °F 33.6 °F 96% 30.12 in 5.0 mi SW 5.8 mph - N/A   Scattered Clouds
8:54 AM 36.5 °F - 34.5 °F 93% 30.13 in 5.0 mi Calm Calm - N/A   Scattered Clouds
9:14 AM 37.4 °F - 34.3 °F 89% 30.12 in 7.0 mi Calm Calm - N/A   Mostly Cloudy
9:33 AM 38.5 °F - 34.9 °F 87% 30.12 in 7.0 mi Calm Calm - N/A   Overcast
9:54 AM 40.3 °F - 35.6 °F 83% 30.12 in 7.0 mi Calm Calm - N/A   Overcast
10:14 AM 41.2 °F 38.2 °F 35.8 °F 81% 30.13 in 10.0 mi SSW 4.6 mph - N/A   Overcast
10:34 AM 41.5 °F 38.6 °F 35.6 °F 79% 30.13 in 10.0 mi SW 4.6 mph - N/A   Overcast
10:54 AM 42.8 °F 40.1 °F 36.1 °F 77% 30.13 in 10.0 mi SW 4.6 mph - N/A   Overcast
11:14 AM 44.4 °F - 36.3 °F 73% 30.12 in 10.0 mi Calm Calm - N/A   Overcast
11:34 AM 45.5 °F - 36.3 °F 70% 30.11 in 10.0 mi Calm Calm - N/A   Overcast
11:54 AM 48.0 °F - 36.9 °F 65% 30.10 in 10.0 mi SSW 3.5 mph - N/A   Overcast
12:14 PM 48.2 °F - 36.5 °F 64% 30.09 in 10.0 mi Calm Calm - N/A   Overcast
12:34 PM 48.2 °F - 36.3 °F 63% 30.07 in 10.0 mi Calm Calm - N/A   Overcast
12:54 PM 48.4 °F - 36.9 °F 64% 30.07 in 10.0 mi SSE 3.5 mph - N/A   Overcast
1:14 PM 49.1 °F - 37.2 °F 64% 30.07 in 10.0 mi South 3.5 mph - N/A   Overcast
1:34 PM 49.1 °F - 37.6 °F 64% 30.08 in 10.0 mi Calm Calm - N/A   Overcast
1:54 PM 49.1 °F - 37.6 °F 64% 30.08 in 10.0 mi Calm Calm - N/A   Overcast
2:14 PM 48.7 °F - 37.4 °F 65% 30.08 in 10.0 mi Calm Calm - N/A   Overcast
2:34 PM 48.9 °F - 37.9 °F 66% 30.08 in 10.0 mi Calm Calm - N/A   Overcast
2:54 PM 48.0 °F - 37.9 °F 68% 30.08 in 10.0 mi Calm Calm - N/A   Overcast
3:14 PM 48.2 °F - 37.4 °F 66% 30.09 in 10.0 mi SSW 3.5 mph - N/A   Overcast
3:34 PM 47.5 °F - 38.3 °F 70% 30.09 in 10.0 mi SSW 4.6 mph - N/A   Overcast
3:54 PM 46.8 °F - 38.3 °F 72% 30.09 in 10.0 mi SW 3.5 mph - N/A   Overcast
4:14 PM 46.4 °F 45.2 °F 37.0 °F 70% 30.10 in 10.0 mi SW 3.5 mph - N/A   Overcast
4:34 PM 45.7 °F 44.4 °F 37.2 °F 72% 30.10 in 10.0 mi SW 3.5 mph - N/A   Overcast
4:54 PM 45.7 °F - 36.9 °F 71% 30.10 in 10.0 mi Calm Calm - N/A   Overcast
5:14 PM 44.8 °F - 36.9 °F 74% 30.10 in 10.0 mi Calm Calm - N/A   Overcast
5:34 PM 44.6 °F - 36.7 °F 74% 30.10 in 10.0 mi Calm Calm - N/A   Overcast
5:54 PM 43.9 °F - 36.5 °F 75% 30.10 in 10.0 mi Calm Calm - N/A   Mostly Cloudy
6:13 PM 41.4 °F - 36.1 °F 82% 30.11 in 10.0 mi Calm Calm - N/A   Mostly Cloudy
6:34 PM 39.2 °F 35.9 °F 35.6 °F 87% 30.12 in 10.0 mi SSW 4.6 mph - N/A   Overcast
6:54 PM 38.8 °F - 35.6 °F 88% 30.12 in 10.0 mi Calm Calm - N/A   Overcast
7:13 PM 39.0 °F - 36.0 °F 89% 30.12 in 10.0 mi Calm Calm - N/A   Scattered Clouds
7:34 PM 39.2 °F - 35.1 °F 85% 30.13 in 10.0 mi Calm Calm - N/A   Clear
7:54 PM 37.2 °F 34.7 °F 34.0 °F 88% 30.12 in 10.0 mi South 3.5 mph - N/A   Clear
8:13 PM 34.2 °F 30.0 °F 32.4 °F 93% 30.13 in 10.0 mi SW 4.6 mph - N/A   Clear
8:34 PM 33.3 °F 28.9 °F 32.2 °F 96% 30.13 in 7.0 mi SW 4.6 mph - N/A   Clear
8:54 PM 32.7 °F 29.6 °F 31.8 °F 96% 30.13 in 7.0 mi SSW 3.5 mph - N/A   Clear
9:13 PM 33.4 °F - 32.0 °F 94% 30.13 in 10.0 mi Calm Calm - N/A   Clear
9:34 PM 34.0 °F - 32.0 °F 92% 30.14 in 7.0 mi Calm Calm - N/A   Clear
9:54 PM 31.8 °F 28.5 °F 29.8 °F 92% 30.14 in 7.0 mi SW 3.5 mph - N/A   Clear
10:14 PM 31.1 °F - 30.0 °F 96% 30.14 in 4.0 mi Calm Calm - N/A   Clear
10:34 PM 32.5 °F - 31.3 °F 95% 30.14 in 7.0 mi Calm Calm - N/A   Clear
10:54 PM 30.0 °F - 28.2 °F 93% 30.14 in 7.0 mi Calm Calm - N/A   Clear
11:14 PM 28.6 °F - 27.5 °F 96% 30.14 in 0.2 mi Calm Calm - N/A Fog Light Freezing Fog
11:34 PM 29.3 °F - 28.4 °F 96% 30.14 in 0.5 mi Calm Calm - N/A Fog Light Freezing Fog
11:54 PM 28.2 °F - 27.5 °F 97% 30.15 in 1.8 mi Calm Calm - N/A   Overcast